Theta_e
329 328 327 327 326 325 323 322 322 321 321 320 319 318 316 314 313 312 311 309 308 307 305 303 302 301 300 301 302 302 302 302 303 303 303 303 304 304 304 304 304 303
328 327 326 326 325 323 321 320 320 320 320 319 318 317 315 313 312 310 310 309 308 306 304 302 302 301 301 302 302 302 302 302 302 302 302 302 302 303 303 303 303 303
327 325 326 325 324 322 320 317 317 318 318 317 316 315 314 312 311 310 309 308 306 305 303 303 303 302 302 302 302 302 302 302 302 302 302 302 301 302 302 302 302 302
326 325 325 325 323 321 319 316 316 317 317 316 315 314 313 312 310 309 308 307 306 304 304 303 303 302 303 303 303 303 302 302 302 301 301 301 301 301 301 301 301 301
325 325 325 324 322 319 317 316 316 317 317 316 314 313 312 311 310 308 307 306 305 304 303 303 302 302 302 303 303 303 302 302 301 301 301 301 301 301 301 301 301 301
325 324 324 323 320 317 316 316 316 317 316 315 314 313 312 311 309 308 307 305 304 303 303 302 302 302 302 303 302 302 302 301 301 300 301 301 300 300 300 300 300 301
325 323 322 322 319 317 316 316 316 316 316 314 313 312 311 310 309 307 306 305 303 303 302 302 302 302 302 302 302 302 302 301 300 300 300 300 300 300 300 300 299 300
325 323 322 321 318 316 315 315 315 316 315 313 313 312 311 310 309 307 306 304 303 302 302 302 302 302 302 302 302 302 301 301 300 300 299 300 300 300 300 300 299 299
323 322 322 320 317 316 315 315 315 315 314 313 312 311 311 310 309 307 306 304 303 303 302 302 302 302 302 301 301 301 301 301 300 300 299 299 299 299 299 300 300 300
322 322 321 318 316 316 315 315 315 314 313 312 311 311 310 310 308 307 306 305 304 303 303 303 303 303 302 301 301 301 301 300 300 299 299 299 299 299 300 300 300 300
322 320 319 317 317 317 315 315 315 314 312 311 311 311 310 309 308 307 306 306 305 304 303 303 303 303 302 301 300 301 300 300 299 299 299 299 299 299 299 300 300 300
320 319 317 317 317 316 314 315 314 313 312 311 310 310 310 309 308 308 307 306 305 304 304 304 303 302 302 301 300 301 301 300 300 299 299 299 299 299 300 300 300 300
319 318 318 317 316 315 314 314 314 313 311 310 310 310 309 309 308 308 307 306 305 305 304 304 303 302 301 301 301 301 301 301 300 300 299 299 299 299 299 299 300 301
319 318 317 315 315 314 313 314 314 313 311 310 309 309 309 309 308 307 307 306 305 305 304 304 302 301 301 301 301 301 301 301 301 300 300 299 299 299 299 299 300 300
319 318 316 314 314 313 313 313 313 312 310 309 309 309 309 308 308 307 307 306 306 305 304 304 302 301 301 301 301 302 302 302 301 301 300 300 299 299 299 299 299 299
317 316 315 314 313 312 313 313 312 311 310 309 309 309 308 308 308 307 307 306 306 305 305 304 303 302 301 301 301 302 302 302 302 301 301 300 300 300 299 299 299 298
316 315 314 313 312 312 312 312 312 311 309 308 308 308 308 308 307 307 307 306 305 305 305 304 303 302 301 300 301 301 302 302 302 301 301 301 300 300 300 299 299 299
315 314 313 312 311 311 311 311 311 310 308 308 308 308 308 307 307 307 306 306 305 305 305 304 303 302 299 299 300 300 301 302 302 302 302 301 301 300 300 299 299 299
313 313 312 311 311 310 310 310 309 308 308 308 308 308 307 307 307 307 306 306 306 305 305 304 303 300 297 297 299 299 300 302 302 302 302 301 301 300 300 300 299 299
312 312 311 310 310 309 309 309 309 308 308 308 308 308 307 307 307 307 307 306 306 305 305 304 303 299 297 298 299 298 299 301 302 302 302 301 301 300 300 300 299 299
312 311 310 310 309 308 308 308 308 308 308 308 308 307 307 307 307 307 307 306 306 305 304 304 304 300 298 298 299 298 298 299 302 303 302 302 301 300 301 300 298 299
311 310 309 309 308 307 308 308 308 308 308 307 307 307 306 307 306 306 306 306 306 305 304 305 304 301 299 299 299 299 298 298 301 303 302 302 302 301 301 300 298 299
310 309 308 307 307 307 307 307 307 308 307 307 306 306 306 306 306 306 306 305 305 305 305 305 304 301 300 300 299 299 299 299 302 303 302 302 302 301 301 300 299 299
309 309 308 307 306 306 306 306 306 306 306 305 305 305 305 305 305 305 305 305 305 305 304 305 303 301 300 300 299 298 298 300 302 302 302 302 302 301 301 301 299 296
309 308 308 306 306 306 305 305 305 305 304 303 303 303 303 303 304 304 305 304 304 304 304 304 303 301 299 299 299 298 298 300 302 302 302 302 302 301 301 300 299 295
309 309 308 307 305 305 305 304 304 303 303 302 301 301 302 302 302 303 303 303 303 304 303 303 303 301 299 299 299 298 298 300 302 302 301 301 301 301 300 300 300 297
Wind_Speed
22 20 18 15 15 15 14 12 11 10 10 9 9 9 10 11 11 11 12 12 12 12 13 14 14 16 16 16 15 14 14 13 13 12 12 13 13 14 14 13 12 12
22 20 19 17 15 15 15 13 12 11 11 10 10 10 11 12 12 12 12 12 12 13 14 14 14 15 15 15 14 14 13 13 12 12 12 13 13 14 14 13 12 12
22 22 21 18 18 18 16 16 15 13 11 11 11 12 13 13 13 13 13 13 13 14 14 14 14 14 14 14 13 13 12 12 11 11 12 12 12 12 12 12 12 12
24 24 23 21 20 19 17 17 16 13 11 11 12 13 14 13 13 13 13 13 14 14 14 14 13 13 13 13 12 12 11 11 11 11 11 11 11 12 12 12 12 12
25 24 23 22 20 19 19 18 16 13 12 12 13 14 14 14 14 14 13 13 13 14 14 14 13 13 13 12 12 11 11 10 10 10 11 11 11 11 11 12 12 12
25 24 24 22 21 20 19 17 15 13 12 13 15 14 15 15 14 14 14 13 13 14 14 14 13 13 12 11 11 10 10 10 10 10 11 11 11 11 11 11 12 11
25 26 25 23 22 20 18 17 15 13 13 14 15 15 15 15 14 14 14 14 14 14 14 14 13 13 12 11 11 11 10 10 10 10 11 11 11 11 11 10 11 11
26 27 25 23 22 20 18 17 15 13 13 15 15 15 15 15 15 15 14 14 14 14 14 14 13 12 11 11 11 11 11 10 10 11 11 11 11 11 10 10 10 10
27 27 25 23 21 19 18 17 14 12 14 15 15 15 15 15 15 15 15 14 14 14 14 14 13 12 11 11 12 12 11 11 11 11 11 11 11 10 10 9 9 8
27 27 26 23 20 18 18 18 15 13 14 15 16 16 15 15 15 15 15 15 14 14 14 14 13 12 12 12 12 12 12 12 12 12 11 11 11 10 9 8 8 7
28 26 25 21 18 18 19 18 15 14 14 16 16 16 16 16 16 16 15 15 14 14 14 14 13 13 13 13 12 12 12 12 12 12 12 11 10 10 9 8 7 7
28 25 22 20 18 19 20 18 15 14 15 16 16 16 16 16 16 16 15 15 14 14 14 14 13 13 13 13 13 12 12 12 12 12 12 11 10 9 8 7 7 6
26 23 21 20 20 20 21 18 15 15 15 16 16 16 17 16 16 16 15 15 14 14 14 14 13 13 13 13 13 13 12 12 12 12 12 11 10 9 8 7 6 6
23 21 21 21 21 21 20 17 15 15 16 16 16 16 16 16 16 16 15 14 14 14 14 14 14 14 14 14 13 13 12 12 12 12 11 11 10 8 7 6 6 6
21 21 21 21 21 20 19 17 16 16 16 16 16 16 16 16 16 16 15 15 15 14 14 14 14 14 14 14 14 13 13 12 11 11 11 11 9 8 7 6 6 6
21 21 20 21 21 20 19 17 17 17 17 17 17 16 16 16 16 16 15 15 15 15 14 14 14 14 15 16 14 13 12 12 11 11 10 10 9 8 7 6 5 5
22 22 21 21 21 20 19 18 17 18 18 18 17 17 16 16 16 16 16 15 15 15 15 14 13 15 18 19 17 14 12 11 11 10 9 9 8 7 7 6 5 5
23 23 21 21 21 20 20 18 18 19 18 18 18 17 17 17 16 17 16 15 16 15 15 14 13 16 21 21 19 16 13 10 10 10 9 8 7 7 6 6 5 5
24 23 21 21 21 21 20 19 19 19 19 18 18 17 17 17 17 17 16 16 16 15 15 14 13 17 21 21 18 17 14 10 9 8 8 7 7 6 5 5 5 5
25 23 20 20 21 21 21 20 20 20 19 18 17 17 17 17 17 17 16 17 16 15 15 14 14 18 22 20 17 16 14 10 7 7 8 7 7 6 5 5 4 4
25 22 20 21 21 21 21 20 20 20 19 18 17 17 17 17 17 17 17 17 17 15 15 14 14 18 22 20 17 15 13 10 6 6 7 7 7 7 5 5 4 4
25 22 22 22 22 22 22 21 20 19 18 17 16 16 17 16 16 17 16 17 17 15 15 13 14 19 21 20 18 16 14 12 8 7 8 8 8 8 6 5 5 4
24 23 24 23 23 24 22 21 21 20 18 18 16 15 16 15 16 16 16 17 16 16 15 13 14 19 21 20 18 17 15 12 9 8 8 8 8 8 7 6 5 5
22 22 24 24 24 23 22 23 23 21 21 21 19 17 16 15 15 15 15 16 16 16 15 13 14 19 22 20 19 19 17 14 11 9 10 9 8 8 8 7 7 7
25 24 26 27 25 22 23 25 25 23 24 25 23 20 17 15 14 14 14 15 16 16 16 14 14 19 23 22 21 21 19 16 13 12 12 11 10 10 9 8 8 8
30 30 32 32 28 25 25 27 26 25 26 26 24 19 15 14 15 14 14 15 15 16 17 15 14 19 24 24 22 22 21 17 12 10 11 11 10 10 10 9 9 8
Wind_Direction
186 177 168 163 161 162 158 150 146 145 141 138 139 138 135 131 128 127 123 122 122 119 118 117 118 120 117 112 107 104 102 99 96 94 94 91 90 89 86 84 84 83
179 172 169 165 161 163 161 152 146 144 140 136 138 137 135 133 131 129 126 124 121 118 118 119 118 119 117 112 108 106 104 101 99 98 96 94 91 89 86 85 83 82
175 171 169 167 168 168 162 156 151 145 139 136 139 140 137 135 133 130 128 126 122 120 120 121 120 119 117 115 111 108 107 105 103 102 99 95 93 91 89 86 84 82
176 174 173 172 172 167 161 158 152 143 139 140 143 143 139 137 135 132 130 127 123 124 125 125 124 123 120 118 114 111 110 107 106 106 102 99 96 94 92 88 86 83
179 178 177 175 170 166 163 158 149 142 141 143 145 144 142 140 138 135 132 129 128 130 131 130 128 127 124 121 118 116 113 110 110 111 108 104 100 96 93 91 88 85
179 177 176 175 171 167 162 154 147 142 141 145 146 145 145 143 141 139 136 135 136 135 135 134 132 130 127 125 123 120 118 117 118 117 112 107 103 99 95 92 89 86
179 178 176 175 172 167 159 152 147 142 142 147 148 147 148 146 143 142 141 140 140 139 139 138 135 134 132 130 128 125 124 125 123 119 113 109 106 102 97 94 92 89
180 179 177 177 174 166 159 153 146 143 147 150 150 151 151 149 146 145 145 143 143 143 142 141 139 138 137 136 135 133 131 129 126 120 115 112 109 105 101 98 97 94
179 178 179 178 172 164 160 156 148 147 153 152 153 154 153 152 151 149 148 147 147 147 146 145 144 142 143 143 142 141 136 131 126 120 117 115 112 109 108 105 102 98
180 179 180 176 168 163 161 158 153 152 156 156 155 156 156 156 154 152 152 151 151 151 150 150 150 148 149 149 146 142 137 131 125 120 117 117 115 114 113 110 106 100
181 180 178 172 165 163 162 159 155 155 158 159 158 159 159 158 157 156 157 156 156 156 155 155 155 155 154 151 146 142 137 131 125 120 118 119 118 117 115 112 108 102
181 177 173 170 165 164 163 160 157 158 161 162 162 162 161 161 162 161 161 161 160 160 159 159 159 159 157 153 148 144 139 131 125 122 120 121 120 119 119 114 108 102
178 174 170 169 167 166 166 161 159 163 164 164 166 165 164 165 165 164 164 164 163 162 162 162 161 160 157 154 151 147 141 135 129 126 124 124 124 123 121 116 107 99
173 171 170 170 168 167 166 162 163 167 166 165 167 167 168 169 168 166 166 166 165 165 164 164 162 160 158 157 155 151 146 140 135 132 129 128 129 128 124 118 109 99
167 167 169 170 169 166 165 165 166 167 166 167 169 170 171 172 170 169 168 167 168 167 166 166 165 163 164 163 159 155 150 146 141 138 136 135 136 135 131 125 113 101
164 166 166 168 167 165 165 166 166 167 168 169 170 172 173 172 172 172 172 170 170 168 168 169 169 170 171 167 163 160 155 150 148 145 142 142 141 140 140 137 127 115
166 167 167 167 168 167 166 167 166 168 170 171 172 173 173 174 175 176 175 175 172 171 172 172 173 179 178 171 166 162 158 154 153 151 149 149 147 147 150 149 144 136
170 170 169 169 168 168 168 167 167 170 172 173 173 174 174 176 178 179 178 177 175 175 176 175 180 190 184 175 169 164 159 158 158 157 157 156 156 156 158 160 159 150
173 171 169 170 171 170 169 167 169 172 175 175 174 175 177 178 181 181 179 179 178 179 180 178 186 193 185 175 173 168 162 163 165 164 166 165 163 164 163 166 171 164
175 172 170 171 172 171 170 170 172 175 176 176 176 177 180 182 183 183 181 182 181 181 182 181 188 193 183 177 179 177 173 175 177 174 176 176 173 174 173 174 178 175
174 171 170 171 171 171 172 173 175 176 176 176 177 179 182 184 185 185 184 185 183 183 183 181 190 193 186 182 187 187 186 194 199 194 192 190 187 186 186 185 184 183
173 170 172 172 171 172 173 174 175 175 175 176 178 181 184 186 187 187 187 186 185 185 182 180 190 194 189 188 192 192 194 202 212 215 209 203 198 197 197 198 197 195
175 173 174 174 175 175 173 172 174 173 174 176 177 179 183 185 186 187 189 188 187 186 182 180 188 192 190 191 193 192 193 199 209 220 222 214 206 204 206 206 208 209
175 174 175 177 178 178 176 176 176 177 180 183 182 181 183 184 186 186 186 187 186 186 185 182 184 190 190 190 191 190 190 194 202 211 216 216 211 211 214 213 214 217
179 179 182 182 181 179 181 182 182 183 189 192 192 191 187 184 185 185 183 185 186 186 186 183 183 190 193 193 192 192 193 196 203 206 204 206 208 210 214 215 217 222
186 188 190 188 185 183 184 185 186 189 193 194 194 191 184 181 184 185 182 183 184 186 187 187 186 192 197 197 195 196 197 201 212 215 205 203 207 211 214 213 213 217